SCP
0 0 0 0 0 0 0 0 0 1 1 2 2 3 4 5 4 4 5 5 5 7 8 7 8 8 7 5 4 3 4 4 5 5 6 6 6 6 5 4 3 2 2 2
0 0 0 0 0 1 1 1 1 1 1 2 2 3 5 5 5 4 4 6 7 9 9 8 8 8 7 5 4 4 5 5 5 5 6 6 6 6 5 4 3 3 3 3
0 0 0 0 1 1 1 1 1 2 2 2 2 3 5 5 5 4 5 6 8 9 10 9 8 8 7 6 6 6 6 7 6 6 6 5 5 5 5 5 4 3 3 3
0 0 0 1 1 1 1 1 2 2 3 3 3 3 4 5 5 5 5 6 7 8 8 8 8 9 9 8 7 7 7 8 7 6 6 5 5 5 5 5 5 4 3 2
0 0 0 0 1 1 1 1 1 2 3 4 4 4 4 5 5 5 5 5 6 7 7 7 9 10 11 10 9 8 8 9 8 7 7 6 5 5 5 5 5 4 3 3
0 0 0 1 1 1 1 1 1 2 3 3 4 4 4 5 6 6 5 5 5 5 6 7 9 11 12 11 9 7 7 8 8 8 7 6 5 5 5 5 5 5 5 5
0 0 0 1 1 1 1 1 2 2 3 3 4 4 5 6 7 6 5 4 4 4 6 7 9 11 11 10 7 6 7 8 8 8 7 6 5 5 5 5 5 5 5 5
0 0 1 2 2 2 2 3 3 3 3 4 5 6 7 8 8 7 6 4 4 4 6 7 8 9 9 8 7 6 7 8 9 7 6 5 5 5 5 4 4 5 5 5
1 1 2 3 3 3 3 4 4 3 4 4 6 7 8 8 8 7 6 5 5 5 7 9 9 9 9 9 8 7 8 9 8 6 5 4 4 4 4 4 4 4 4 4
2 2 3 3 3 3 4 4 4 4 4 4 6 7 8 9 8 7 6 6 6 6 8 9 9 10 11 11 9 8 8 8 7 5 4 4 5 5 5 4 4 4 4 4
3 3 3 3 3 3 4 4 5 5 4 5 6 8 9 10 9 8 7 7 7 7 8 8 8 10 12 13 10 8 7 6 5 5 5 5 5 5 5 4 4 3 3 3
5 4 4 4 4 4 4 5 6 6 6 7 8 9 10 10 9 8 7 7 7 8 9 8 8 9 10 11 10 8 6 5 5 6 6 7 7 6 5 3 2 2 2 2
6 5 5 5 5 5 5 5 6 7 7 7 7 8 8 8 8 8 8 7 6 8 9 8 7 7 8 8 8 7 5 5 6 7 8 8 8 7 6 3 2 1 1 1
6 6 6 6 6 5 5 5 5 5 5 5 5 5 5 5 6 7 7 7 7 7 7 7 6 7 6 6 7 6 5 6 7 9 9 8 8 7 6 4 2 1 0 0
5 5 6 6 6 6 5 4 4 4 4 4 4 4 4 5 6 7 7 7 7 7 7 6 6 6 6 6 6 6 6 6 7 8 8 7 6 6 5 3 3 2 1 1
4 4 5 6 6 6 5 4 4 3 4 4 4 4 4 5 6 6 6 6 7 7 6 6 7 8 8 7 7 8 8 7 7 7 7 6 5 4 4 3 3 2 1 1
3 3 4 4 5 5 5 4 4 4 3 4 5 5 5 5 6 6 6 6 7 7 7 7 8 10 11 10 10 10 9 8 8 7 7 6 5 4 3 3 3 2 2 2
2 3 3 3 4 4 5 5 4 4 4 4 4 5 5 5 6 6 5 5 7 9 9 9 10 13 14 13 12 11 10 9 8 7 6 5 4 3 3 2 2 2 2 1
2 2 2 3 3 4 5 5 4 4 4 4 4 4 4 5 5 6 5 5 7 9 9 9 10 13 13 12 10 9 8 6 5 4 3 2 2 2 2 1 1 1 1 1
2 2 2 3 3 4 5 5 5 5 5 5 5 4 5 5 6 6 6 5 6 7 6 6 8 9 9 7 6 5 4 3 2 2 1 1 1 1 1 0 0 0 0 0
3 3 3 3 4 5 6 6 6 6 6 6 6 6 6 7 7 6 5 5 5 5 4 3 4 5 5 3 3 3 2 1 1 1 1 1 1 0 0 0 0 0 0 0
3 3 4 4 5 6 7 7 6 6 5 5 5 6 7 6 6 5 5 5 4 4 3 3 3 3 2 2 2 2 2 1 1 1 1 1 0 0 0 0 0 0 0 0
4 4 5 5 6 7 7 6 5 4 4 4 4 4 4 4 3 3 3 3 3 3 3 3 2 1 1 1 2 2 2 2 1 1 1 1 0 0 0 0 0 0 0 0
4 4 4 5 6 6 5 5 4 3 3 2 2 2 2 2 2 2 2 3 2 2 2 2 1 0 0 1 2 2 2 2 2 1 1 1 0 0 0 0 0 0 0 0
4 4 4 4 4 4 4 3 3 3 2 2 2 2 2 2 1 2 2 2 2 2 2 2 1 0 0 1 2 2 2 2 2 2 1 1 1 0 0 0 0 0 0 0
3 3 3 3 3 3 2 2 2 2 2 2 2 2 2 2 1 1 2 2 2 2 2 1 1 1 1 1 1 1 2 2 2 2 1 1 1 0 0 0 0 0 0 0
3 3 3 3 3 2 2 2 2 2 2 2 2 2 2 2 2 2 1 1 1 1 1 2 1 1 1 1 1 1 1 2 2 2 2 1 1 0 0 0 0 0 0 0
Wind_Speed
8 5 7 9 10 11 11 10 10 7 6 4 3 4 4 5 6 7 8 8 8 8 7 7 7 6 6 5 5 4 4 3 3 2 2 2 2 2 2 2 2 2 1 1
10 9 9 10 10 11 11 10 10 9 7 3 1 3 4 5 6 6 7 7 7 7 7 7 7 6 5 5 4 4 4 3 3 3 3 2 2 2 2 2 2 2 2 2
11 9 10 13 11 11 11 9 9 9 5 2 2 3 4 5 5 5 6 6 6 6 6 6 6 6 6 5 4 4 3 3 3 3 3 2 3 3 3 2 2 2 1 2
9 9 15 6 3 7 9 7 6 6 5 3 2 3 3 4 4 4 4 5 5 5 5 6 6 6 5 6 5 4 3 3 3 3 3 3 3 2 2 2 2 2 1 2
9 12 12 7 5 7 8 7 4 5 3 2 1 3 5 3 2 3 4 5 5 5 5 5 6 6 6 6 5 5 4 3 3 3 3 3 3 2 2 2 2 2 2 2
9 12 12 6 5 4 7 8 2 2 2 1 2 5 3 2 1 2 4 4 5 5 5 6 5 6 6 5 5 4 4 3 3 3 2 2 2 2 2 2 2 2 3 2
12 11 8 2 3 6 10 2 1 1 2 2 3 3 1 2 2 3 4 5 5 5 5 5 5 6 6 5 5 4 4 4 4 4 3 3 2 2 3 3 3 3 3 3
10 12 7 3 3 4 2 3 2 2 1 1 0 2 3 3 3 4 4 5 5 5 5 5 6 6 5 4 4 4 4 4 4 4 3 3 3 3 3 3 4 3 3 2
5 3 3 2 1 2 3 3 3 2 2 0 1 2 3 3 3 3 3 3 3 5 6 5 5 5 5 4 4 4 5 5 4 4 3 3 3 3 3 2 2 2 2 2
4 3 1 1 1 2 3 3 4 3 2 1 2 2 2 2 2 2 3 3 3 4 6 5 5 4 4 4 4 5 5 5 5 4 4 3 2 2 2 2 2 2 2 1
6 4 4 3 2 3 4 3 3 2 1 2 3 3 3 2 2 2 2 2 3 4 5 5 5 4 5 5 5 5 5 4 4 4 4 4 3 3 2 3 2 1 1 1
5 3 4 3 4 5 4 3 3 2 1 1 2 3 3 2 2 2 2 2 3 4 5 5 5 5 4 4 5 5 5 4 4 4 4 4 5 5 7 5 6 5 5 3
5 6 6 5 5 5 4 4 3 2 2 2 2 3 3 2 2 2 2 3 4 4 5 5 5 5 4 4 4 4 4 4 3 4 4 4 4 4 5 5 5 5 4 4
4 4 5 5 5 4 4 3 2 2 2 2 3 3 3 3 3 3 3 3 4 5 5 5 5 4 4 4 4 4 4 4 3 4 4 3 3 3 4 4 5 4 4 4
4 5 5 5 4 4 4 3 3 2 2 2 3 3 3 3 3 3 3 3 4 5 5 5 5 4 4 4 4 4 3 3 3 3 4 4 4 3 3 4 3 4 4 4
5 4 5 4 4 4 4 4 4 3 2 3 3 2 2 3 3 3 3 3 5 5 5 5 4 4 4 4 5 4 3 4 2 3 3 4 4 3 3 3 3 3 3 3
5 5 5 5 5 5 5 5 4 4 3 3 3 3 4 4 4 4 3 4 5 5 5 5 4 4 4 4 4 3 3 5 4 4 3 3 3 4 4 3 3 3 3 3
6 6 6 6 5 5 4 4 4 4 4 4 4 5 6 6 5 5 5 6 6 6 5 5 4 4 5 4 3 3 3 4 4 3 3 3 3 3 3 3 3 3 3 4
6 5 5 5 5 4 4 4 4 3 3 4 4 5 5 5 5 5 6 6 6 6 5 5 4 5 5 4 3 4 4 4 4 3 3 4 4 3 3 3 3 3 3 3
4 4 3 3 3 3 4 4 4 4 3 4 5 6 5 5 5 6 6 5 3 4 5 5 5 5 4 4 3 3 4 4 4 4 4 4 3 3 3 3 3 2 2 2
2 1 1 1 2 3 4 5 5 5 5 6 6 6 6 5 5 5 5 4 4 4 5 5 4 3 3 3 4 3 3 4 3 3 3 3 3 3 3 3 3 2 2 2
0 0 1 2 3 4 4 4 5 6 6 6 6 6 5 5 4 4 3 2 4 4 3 3 3 4 3 2 3 3 4 4 3 3 3 3 3 3 2 2 2 2 2 2
2 2 3 3 4 4 4 4 5 5 5 5 5 5 4 3 3 3 3 3 3 3 2 2 4 5 2 4 3 3 3 3 3 3 3 3 3 3 3 3 3 2 2 2
3 3 3 4 4 5 5 5 5 4 5 4 4 4 3 3 3 2 2 5 3 2 2 4 5 4 4 4 3 3 3 3 3 3 3 3 2 2 2 3 3 3 2 3
3 4 4 4 4 4 5 5 5 5 4 3 4 4 2 2 2 2 2 3 4 3 3 5 5 5 5 3 3 3 2 2 2 2 2 2 3 3 3 3 2 2 2 2
3 3 3 3 3 3 3 3 3 3 3 3 3 2 2 2 3 3 3 3 4 4 3 3 4 5 4 3 3 3 2 3 4 4 3 3 3 3 2 2 3 2 2 2
4 4 3 3 2 2 1 1 2 2 2 2 2 2 2 2 2 2 3 3 3 3 3 3 3 3 3 3 3 3 3 2 3 2 2 3 3 3 3 3 2 2 2 3
Wind_Direction
248 240 225 219 216 214 231 252 257 248 255 272 223 193 172 161 159 163 167 172 173 168 164 164 163 164 165 162 158 160 166 164 165 164 157 163 158 144 135 134 125 103 79 67
227 226 232 235 227 223 228 239 248 255 259 297 286 170 172 168 165 170 174 173 169 169 166 167 167 167 162 161 159 162 169 170 167 157 149 153 150 137 131 128 111 98 78 65
224 213 230 233 228 226 226 232 244 251 267 286 235 193 186 177 172 172 173 168 169 169 171 170 167 164 163 154 148 153 161 165 157 152 150 154 153 145 142 139 125 118 109 88
228 213 234 224 207 226 228 232 247 258 276 277 263 212 173 165 169 169 166 164 168 172 172 170 163 155 155 149 154 158 158 161 156 161 158 156 154 151 148 143 137 131 115 96
230 226 227 205 199 216 224 225 250 262 277 285 230 176 162 124 157 165 166 160 162 171 171 164 160 155 153 157 159 160 159 161 161 160 161 161 161 160 155 153 145 134 111 98
228 238 232 202 176 218 233 220 198 262 272 243 204 225 160 109 143 144 147 149 153 158 157 154 154 157 155 157 158 161 160 155 152 151 160 165 167 166 155 154 146 133 112 104
228 234 234 167 159 201 225 211 50 299 278 233 221 306 75 140 127 128 140 142 144 146 145 143 147 153 154 156 162 161 153 148 147 147 151 151 153 150 147 148 136 124 118 108
225 233 219 104 180 225 350 12 345 314 295 246 202 92 112 119 123 129 132 141 145 141 136 138 145 148 151 155 152 148 148 147 143 142 143 139 151 149 148 154 147 137 131 123
237 245 57 106 83 23 347 325 323 318 326 242 190 154 136 127 123 126 127 136 143 140 139 140 144 147 150 149 149 150 148 140 138 136 131 132 143 146 151 158 157 150 150 138
239 220 223 223 325 337 334 328 316 309 293 220 195 174 156 142 136 133 127 135 146 153 150 147 148 147 145 146 155 156 152 146 145 143 141 133 140 139 141 144 153 157 145 132
229 231 233 226 285 312 318 315 313 303 265 209 191 186 179 169 159 154 146 156 168 167 158 154 149 147 149 151 159 155 153 155 152 147 139 133 114 73 89 80 39 356 82 121
244 246 260 268 291 298 299 305 305 292 263 206 193 180 180 176 167 177 167 176 179 168 156 151 151 152 150 155 159 159 160 162 161 154 150 150 140 120 63 62 75 64 43 33
281 282 285 283 285 287 289 299 292 268 229 210 196 185 180 184 189 180 177 191 181 163 154 154 155 151 149 158 164 166 165 163 165 157 157 161 154 150 135 108 87 81 77 71
270 268 268 273 277 274 274 281 279 257 215 199 192 184 179 186 187 180 187 180 157 149 152 153 153 146 151 158 163 166 168 156 168 157 157 156 155 156 152 151 146 132 116 113
265 269 265 265 262 258 248 234 228 220 199 190 184 184 187 187 181 169 159 149 147 147 151 154 153 147 155 161 160 166 166 151 159 154 158 152 154 157 155 154 145 136 134 130
265 260 252 244 246 250 242 226 214 203 188 179 168 165 171 156 144 141 146 155 158 152 153 155 151 145 152 162 159 163 153 124 166 172 162 155 155 157 154 153 152 152 155 143
265 250 244 243 243 241 238 228 216 200 189 184 172 166 160 156 151 151 151 153 150 148 152 151 148 147 153 164 167 164 156 147 174 193 171 162 160 160 160 163 165 163 151 123
274 266 255 248 243 231 223 218 207 200 195 188 183 180 175 173 171 163 154 147 143 142 143 145 147 154 156 160 167 160 158 161 172 171 161 160 162 163 161 162 163 163 145 142
282 270 260 247 232 217 207 203 194 182 180 183 180 177 179 170 160 157 153 146 146 144 136 129 139 156 147 141 162 167 163 160 159 157 154 149 172 164 156 158 160 160 157 157
289 278 262 246 212 190 181 173 164 159 157 160 156 152 150 148 148 146 144 143 137 123 130 132 149 148 147 142 192 169 159 161 160 156 158 170 168 163 171 170 167 167 164 165
284 270 211 194 161 151 150 145 143 137 133 137 137 137 136 138 144 148 155 144 128 126 133 144 160 150 143 142 200 179 168 169 170 168 171 176 174 173 174 168 161 173 181 183
32 131 124 132 131 122 120 126 131 130 128 131 129 127 131 139 143 143 142 125 125 126 162 163 152 113 109 204 197 182 178 179 181 181 178 179 181 183 186 183 185 192 198 207
95 106 111 115 116 114 112 114 121 125 128 128 129 134 137 139 151 156 146 130 137 139 175 138 106 114 166 218 205 197 187 185 189 189 187 189 192 195 197 200 204 206 214 218
96 101 105 108 110 111 111 109 110 114 120 123 129 138 147 151 151 151 122 122 129 157 164 115 128 155 213 219 208 200 189 191 195 193 193 194 194 198 200 206 210 203 205 218
87 93 100 109 114 113 111 118 119 118 124 123 127 134 147 141 140 123 121 136 142 171 171 148 162 191 214 207 197 193 193 190 200 212 200 197 203 204 210 218 219 213 214 215
78 79 80 81 84 95 113 123 125 128 127 117 113 122 123 125 130 135 151 163 164 174 192 173 175 197 207 199 192 194 195 185 194 209 210 210 211 219 228 229 225 226 223 219
78 82 90 91 92 91 99 115 117 123 128 128 127 132 136 136 146 160 166 171 171 179 190 194 195 199 196 196 191 191 199 209 217 217 210 211 214 220 221 222 226 224 223 220